Wayne, NE

9:04 PM CDT on May 29, 2017 (GMT -0500)
Wayne Municipal

Weather History for KLCG - April, 2013

Change the Weather History Date:

Sunday, April 14, 2013

  Actual Average (KOFK) Record (KOFK)
Temperature  
Mean Temperature 47 °F -  
Max Temperature 56 °F 59 °F 91 °F (1954)
Min Temperature 38 °F 36 °F 14 °F (1928)
Degree Days  
Heating Degree Days 18    
Moisture  
Dew Point 40 °F    
Average Humidity 78    
Maximum Humidity 96    
Minimum Humidity 47    
Precipitation  
Precipitation 0.19 in - - ()
Sea Level Pressure  
Sea Level Pressure 29.47 in    
Wind  
Wind Speed 21 mph (South)    
Max Wind Speed 33 mph    
Max Gust Speed 38 mph    
Visibility 10 miles    
Events Rain    
Averages and records for this station are not official NWS values.
T = Trace of Precipitation, MM = Missing Value Source: NWS Daily Summary

Daily Weather History Graph

Daily Weather History Graph

Search for Another Location

Airport or City:

Trip Planner

Search our weather history database for the weather conditions in past years. The results will help you decide how hot, cold, wet, or windy it might be!

Date:

Astronomy

Apr. 14, 2013 Rise Set
Actual Time 6:48 AM CDT 8:08 PM CDT
Civil Twilight 6:19 AM CDT 8:37 PM CDT
Nautical Twilight 5:44 AM CDT 9:12 PM CDT
Astronomical Twilight 5:07 AM CDT 9:49 PM CDT
Moon 9:22 AM CDT (4/14) No Moon Set
Length of Visible Light 14h 18m
Length of Day
13h 20m
Waxing Crescent, 17% of the Moon is Illuminated
Apr 14
Waxing Crescent
Apr 18
First Quarter
Apr 25
Full
May 2
Last Quarter
May 9
New

Hourly Weather History & Observations

Time (CDT) Temp. Windchill Dew Point Humidity Pressure Visibility Wind Dir Wind Speed Gust Speed Precip Events Conditions
12:15 AM 43.2 °F 34.2 °F 37.0 °F 79% 29.60 in 10.0 mi ESE 21.9 mph 29.9 mph N/A   Scattered Clouds
12:35 AM 43.5 °F 35.0 °F 36.9 °F 77% 29.63 in 10.0 mi SE 20.7 mph 27.6 mph N/A   Scattered Clouds
12:55 AM 43.7 °F 35.2 °F 36.9 °F 77% 29.63 in 10.0 mi SE 20.7 mph 25.3 mph N/A   Clear
1:15 AM 43.7 °F 35.4 °F 36.7 °F 76% 29.63 in 10.0 mi SE 19.6 mph 27.6 mph N/A   Scattered Clouds
1:35 AM 43.9 °F 34.3 °F 36.9 °F 76% 29.59 in 10.0 mi SE 26.5 mph 34.5 mph N/A   Mostly Cloudy
1:55 AM 42.8 °F 31.8 °F 38.7 °F 85% 29.60 in 7.0 mi SE 33.4 mph 38.0 mph 0.01 in Rain Light Rain
2:15 AM 42.1 °F 31.3 °F 39.9 °F 92% 29.59 in 4.0 mi SE 29.9 mph 38.0 mph 0.06 in Rain Light Rain
2:35 AM 41.9 °F 31.7 °F 40.1 °F 93% 29.59 in 5.0 mi SE 26.5 mph 31.1 mph 0.13 in Rain Rain
2:55 AM 42.1 °F 32.1 °F 40.6 °F 95% 29.56 in 5.0 mi SE 25.3 mph 32.2 mph 0.17 in Rain Light Rain
3:15 AM 42.1 °F 31.9 °F 40.6 °F 95% 29.54 in 7.0 mi SE 26.5 mph 33.4 mph 0.01 in Rain Light Rain
3:35 AM 42.1 °F 31.7 °F 41.0 °F 96% 29.52 in 7.0 mi ESE 27.6 mph 34.5 mph 0.01 in Rain Light Rain
3:55 AM 42.1 °F 31.7 °F 41.0 °F 96% 29.51 in 10.0 mi ESE 27.6 mph 33.4 mph 0.01 in   Overcast
4:15 AM 42.3 °F 32.6 °F 41.2 °F 96% 29.50 in 10.0 mi ESE 24.2 mph 33.4 mph N/A   Overcast
4:35 AM 42.8 °F 33.5 °F 41.5 °F 95% 29.49 in 10.0 mi SE 23.0 mph 28.8 mph N/A   Overcast
4:55 AM 43.2 °F 34.2 °F 41.9 °F 95% 29.47 in 10.0 mi ESE 21.9 mph 29.9 mph N/A   Overcast
5:15 AM 42.6 °F 33.3 °F 40.8 °F 93% 29.46 in 10.0 mi ESE 23.0 mph 29.9 mph N/A   Mostly Cloudy
5:35 AM 42.1 °F 32.1 °F 40.6 °F 95% 29.44 in 10.0 mi ESE 25.3 mph - N/A   Scattered Clouds
5:55 AM 42.4 °F 32.6 °F 40.6 °F 93% 29.42 in 10.0 mi ESE 25.3 mph 32.2 mph N/A   Clear
6:15 AM 42.4 °F 32.8 °F 40.6 °F 93% 29.42 in 10.0 mi ESE 24.2 mph 28.8 mph N/A   Clear
6:35 AM 42.8 °F 33.5 °F 40.5 °F 91% 29.41 in 10.0 mi SE 23.0 mph 31.1 mph N/A   Clear
6:55 AM 43.2 °F 33.8 °F 40.6 °F 91% 29.39 in 10.0 mi ESE 24.2 mph 31.1 mph N/A   Clear
7:15 AM 43.3 °F 33.6 °F 40.6 °F 90% 29.38 in 10.0 mi ESE 26.5 mph 34.5 mph N/A   Clear
7:35 AM 43.2 °F 33.4 °F 40.6 °F 91% 29.37 in 10.0 mi ESE 26.5 mph 34.5 mph N/A   Clear
7:55 AM 43.0 °F 32.7 °F 40.6 °F 91% 29.35 in 10.0 mi ESE 28.8 mph 34.5 mph N/A   Clear
8:15 AM 43.2 °F 33.6 °F 41.0 °F 92% 29.35 in 10.0 mi ESE 25.3 mph 34.5 mph N/A   Clear
8:35 AM 43.9 °F 34.7 °F 41.7 °F 92% 29.34 in 10.0 mi ESE 24.2 mph 32.2 mph N/A   Clear
8:55 AM 45.1 °F 36.9 °F 42.6 °F 91% 29.35 in 10.0 mi SE 21.9 mph 28.8 mph N/A   Clear
9:15 AM 46.0 °F 38.5 °F 43.3 °F 90% 29.33 in 10.0 mi SE 19.6 mph 27.6 mph N/A   Clear
9:35 AM 47.3 °F - 44.2 °F 89% 29.33 in 10.0 mi SE 18.4 mph 24.2 mph N/A   Clear
9:55 AM 49.3 °F - 46.0 °F 89% 29.32 in 10.0 mi SE 15.0 mph 21.9 mph N/A   Clear
10:15 AM 50.9 °F - 47.3 °F 87% 29.32 in 10.0 mi SE 15.0 mph - N/A   Clear
10:35 AM 52.2 °F - 48.2 °F 86% 29.31 in 10.0 mi SSE 15.0 mph - N/A   Clear
10:55 AM 54.5 °F - 49.3 °F 83% 29.32 in 10.0 mi SSE 16.1 mph - N/A   Mostly Cloudy
11:15 AM 54.1 °F - 48.7 °F 82% 29.34 in 10.0 mi SSE 11.5 mph - N/A   Overcast
11:35 AM 54.1 °F - 49.5 °F 84% 29.34 in 10.0 mi South 9.2 mph - N/A   Overcast
11:55 AM 55.6 °F - 50.4 °F 83% 29.32 in 10.0 mi SE 11.5 mph - N/A   Overcast
12:15 PM 56.3 °F - 50.7 °F 82% 29.31 in 10.0 mi SSE 13.8 mph - N/A   Mostly Cloudy
12:35 PM 56.3 °F - 51.3 °F 83% 29.28 in 10.0 mi SSE 13.8 mph - N/A Rain Light Rain
12:55 PM 52.7 °F - 47.8 °F 84% 29.35 in 10.0 mi West 19.6 mph 31.1 mph N/A   Overcast
1:15 PM 49.1 °F - 45.7 °F 88% 29.37 in 10.0 mi West 12.7 mph 21.9 mph N/A   Overcast
1:35 PM 50.9 °F - 47.3 °F 87% 29.37 in 10.0 mi West 17.3 mph 21.9 mph N/A   Overcast
1:55 PM 53.1 °F - 46.8 °F 79% 29.38 in 10.0 mi West 19.6 mph 27.6 mph N/A   Scattered Clouds
2:15 PM 52.7 °F - 46.4 °F 79% 29.35 in 10.0 mi West 13.8 mph 23.0 mph N/A   Mostly Cloudy
2:35 PM 52.0 °F - 45.7 °F 79% 29.40 in 10.0 mi West 20.7 mph 27.6 mph N/A   Overcast
3:15 PM 51.1 °F - 42.8 °F 73% 29.40 in 10.0 mi West 19.6 mph 28.8 mph N/A   Mostly Cloudy
3:35 PM 51.1 °F - 39.0 °F 63% 29.42 in 10.0 mi West 19.6 mph 27.6 mph N/A   Scattered Clouds
3:55 PM 53.2 °F - 40.5 °F 62% 29.43 in 10.0 mi West 23.0 mph 27.6 mph N/A   Clear
4:15 PM 53.6 °F - 38.7 °F 57% 29.45 in 10.0 mi West 25.3 mph 29.9 mph N/A   Scattered Clouds
4:35 PM 53.1 °F - 36.1 °F 53% 29.46 in 10.0 mi West 17.3 mph 26.5 mph N/A   Clear
4:55 PM 55.6 °F - 37.6 °F 51% 29.45 in 10.0 mi WNW 15.0 mph 24.2 mph N/A   Clear
5:15 PM 56.1 °F - 36.3 °F 47% 29.46 in 10.0 mi West 18.4 mph 27.6 mph N/A   Scattered Clouds
5:35 PM 55.8 °F - 36.3 °F 48% 29.47 in 10.0 mi West 19.6 mph 31.1 mph N/A   Scattered Clouds
5:55 PM 55.4 °F - 36.1 °F 48% 29.48 in 10.0 mi West 24.2 mph 33.4 mph N/A   Clear
6:15 PM 53.2 °F - 35.8 °F 52% 29.51 in 10.0 mi West 23.0 mph 32.2 mph N/A   Clear
6:35 PM 51.8 °F - 34.7 °F 52% 29.54 in 10.0 mi West 25.3 mph 35.7 mph N/A   Scattered Clouds
6:55 PM 50.0 °F - 33.4 °F 53% 29.54 in 10.0 mi WNW 23.0 mph 27.6 mph N/A   Clear
7:15 PM 49.6 °F - 33.4 °F 54% 29.56 in 10.0 mi West 12.7 mph 20.7 mph N/A   Clear
7:35 PM 49.1 °F - 32.5 °F 53% 29.56 in 10.0 mi West 12.7 mph 19.6 mph N/A   Clear
7:55 PM 48.4 °F - 33.3 °F 56% 29.57 in 10.0 mi West 10.4 mph - N/A   Scattered Clouds
8:15 PM 47.5 °F - 33.6 °F 59% 29.57 in 10.0 mi WSW 9.2 mph - N/A   Clear
8:35 PM 46.6 °F - 33.4 °F 60% 29.58 in 10.0 mi WSW 12.7 mph - N/A   Clear
8:55 PM 45.1 °F 38.8 °F 32.9 °F 62% 29.59 in 10.0 mi West 13.8 mph - N/A   Clear
9:15 PM 44.6 °F 38.4 °F 32.7 °F 63% 29.61 in 10.0 mi West 12.7 mph - N/A   Clear
9:35 PM 43.5 °F 38.9 °F 33.1 °F 67% 29.61 in 10.0 mi WSW 8.1 mph - N/A   Clear
9:55 PM 41.9 °F 38.2 °F 33.3 °F 71% 29.62 in 10.0 mi SW 5.8 mph - N/A   Clear
10:15 PM 41.2 °F 37.3 °F 33.8 °F 75% 29.62 in 10.0 mi WSW 5.8 mph - N/A   Clear
10:35 PM 40.1 °F 35.3 °F 34.0 °F 79% 29.63 in 10.0 mi WSW 6.9 mph - N/A   Clear
10:55 PM 39.7 °F 34.9 °F 33.8 °F 79% 29.63 in 10.0 mi SW 6.9 mph - N/A   Clear
11:15 PM 38.8 °F 33.8 °F 33.8 °F 82% 29.64 in 10.0 mi WSW 6.9 mph - N/A   Clear
11:35 PM 40.5 °F 33.6 °F 33.3 °F 75% 29.65 in 10.0 mi West 11.5 mph - N/A   Clear
11:55 PM 39.9 °F 33.9 °F 32.9 °F 76% 29.66 in 10.0 mi West 9.2 mph - N/A   Clear